Location: Dallas
(32.7833°N, 96.8000°W)
Time: 00:49:58
(UTC-06:00)

Envisat - Pass Details

Date: 28 January 2021
Orbit: 764 x 766 km, 98.1° (Epoch: 06 March)

Event Time Altitude Azimuth Distance (km) Brightness Sun altitude
Rises 05:07:29 0° 31° (NNE) 3,234 6.6 -28.8°
Reaches altitude 10° 05:10:23 10° 47° (NE) 2,303 6.0 -28.2°
Maximum altitude 05:14:06 20° 95° (E) 1,693 5.5 -27.5°
Drops below altitude 10° 05:17:48 10° 142° (SE) 2,292 6.0 -26.7°
Sets 05:20:39 0° 159° (SSE) 3,213 6.6 -26.1°
